WESTFORD NEEDLES, 2377

Orbit data source: Space-Track

WESTFORD NEEDLES, 2377 is space debris in LEO originally from a launch on Thu, 09 May 1963 UTC launched from the Air Force Western Test Range (AFWTR). Debris objects in space refer to the collection of defunct objects orbiting the Earth. Examples of debris include non-operational satellites, rocket bodies, and fragments generated from explosions, collisions, or faulty payload assembly.

Loading next visibility...
Identifier
2377, 1963-014X
Orbit
LEO
Country
Flag of USUS
Related business
Manufacturer
Unknown
Mission
Spacecraft
Bus & Motor
Unknown
Mass
Unknown
Launch date (UTC)
1963-05-09 (63 years ago)
Launch vehicle
Unknown
Launch site
Air Force Western Test Range (AFWTR)
Object type
Payload
Rocket body
Debris
Shape & HBR
Unknown shape, 0.4 m
Radar Cross Section
Medium (>0.1 m² and <1 m²)

Expand to show TLE details & history
Last TLE update: 3 months ago

TLE from 3 months ago
0 WESTFORD NEEDLES
1 02377U 63014X   25313.60085427 -.00000752  00000-0 -29962+0 0  9992
2 02377  87.3736 184.8378 0512587 154.0867 208.6635  8.68691312906945
Epoch: 2025-11-09T14:25Z
TLE epoch observation values (Epoch: 2025-11-09T14:25:13.808Z)
Latitude
-0.00011°
Longitude
-80.48352°
Altitude
4,075.335 km
Speed
6.033 km/s
True Right ascension
12h 19m 21s
True Declination
0° 00' 00"
Sunlit
Object was in daylight at epoch
Visualization orbit readout
Latitude
Unknown
Longitude
Unknown
Altitude
Unknown
Speed
Unknown
Apparent Right ascension
Unknown
Apparent Declination
Unknown
Sunlit
N/A
Visualization observer readout
Local Sidereal Time
10:43:31
Azimuth
Unknown
Elevation
Unknown
Doppler factor
Unknown
Orbital elements
Apogee altitude
4,127.908 km
Perigee altitude
3,103.372 km
Semi-major axis
9,993.777 km
Eccentricity
0.05126
Inclination
87.3736°
RAAN
184.8378°
Arg. of periapsis
154.0867°
True anomaly
205.99726°
Mean anomaly
208.6635°
Eccentric anomaly
207.31577°
Mean motion
2.17244 °/min
Orbital period
165.71 mins
BSTAR
-0.29962
Loading maneuver chart data...
Computing Atmospheric mass density...

Documentation

Showing up to 5 results
|